Regional Weather Roundup
Issued by NWS

Home | Current Version | Previous Version | Graphics & Text | Print | Product List | Glossary On
Versions: 1 2 3 4 5 6 7 8 9 10 11 12 13 14 15 16 17 18 19 20 21 22 23 24 25 26 27 28 29 30 31 32 33 34 35 36 37 38 39 40 41 42 43 44 45 46 47 48 49 50
000
ASUS43 KLSX 271559
RWRMO

WEATHER SUMMARY FOR MISSOURI
NATIONAL WEATHER SERVICE SPRINGFIELD MO
1000 AM CST FRI FEB 27 2015

NOTE: "FAIR" INDICATES FEW OR NO CLOUDS BELOW 12,000 FEET WITH NO
       SIGNIFICANT WEATHER AND/OR OBSTRUCTIONS TO VISIBILITY.
       CURRENT SKY AND/OR WEATHER CONDITIONS ARE NOT AVAILABLE FOR
       CHILLICOTHE AND FARMINGTON.

MOZ001>031-035>038-043-044-053-054-271700-
...NORTHERN AND WESTERN MISSOURI...

CITY           SKY/WX    TMP DP  RH WIND       PRES   REMARKS
KANSAS CTY INT CLOUDY     8  -1  66 VRB3      30.64S
KANSAS C DTWN  SUNNY     11  -2  56 W6        30.68S WCI   1
LEE`S SUMMIT   SUNNY      9  -3  58 CALM      30.65S
ST JOSEPH      SUNNY      8  -1  66 CALM      30.69R
CHILLICOTHE      N/A      8  -3  61 NE3       30.68S
KIRKSVILLE     SUNNY      7  -3  64 N7        30.64F WCI  -5

$$
MOZ066>068-077>081-088>096-101>105-271700-
...SOUTHWEST MISSOURI...

CITY           SKY/WX    TMP DP  RH WIND       PRES   REMARKS
SPRINGFIELD    CLOUDY    13   1  59 NW3       30.58R
JOPLIN         CLOUDY    13   1  59 NE12      30.60F WCI  -1

$$
MOZ032>034-039>042-045>050-055>058-069>072-271700-
...CENTRAL MISSOURI...

CITY           SKY/WX    TMP DP  RH WIND       PRES   REMARKS
COLUMBIA       SUNNY     11  -1  58 NE6       30.64F WCI   1
JEFFERSON CITY SUNNY     10  -3  55 VRB5      30.68F WCI   2
ROLLA          SUNNY     11  -2  56 N7        30.58F WCI   0
SEDALIA        FLURRIES  12  -1  56 N6        30.67R WCI   3
OSAGE BEACH    SUNNY     12   0  57 CALM      30.64R

$$
MOZ051-052-059>065-271700-
...EAST CENTRAL MISSOURI...

CITY           SKY/WX    TMP DP  RH WIND       PRES   REMARKS
ST LOUIS INTL  MOSUNNY    9  -2  61 VRB7      30.67F WCI  -2
SPIRIT OF STL  SUNNY     10  -3  55 NW3       30.68F
ST CHARLES     SUNNY      7  -2  66 W5        30.69F WCI  -2

$$
MOZ072>076-082>087-097>100-106>115-271700-
...SOUTH CENTRAL AND SOUTHEAST MISSOURI...

CITY           SKY/WX    TMP DP  RH WIND       PRES   REMARKS
CAPE GIRARDEAU SUNNY     16   5  62 N9        30.65F WCI   4
FARMINGTON     SUNNY     10   1  67 NE7       30.63S WCI   0
POPLAR BLUFF   SUNNY     14   2  58 NE9       30.65S WCI   2
WEST PLAINS    SUNNY     13   0  56 NE9       30.57S WCI   1

$$



USA.gov is the U.S. government's official web portal to all federal, state and local government web resources and services.